Regional Weather Roundup
Issued by NWS

Home | Current Version | Previous Version | Text Only | Print | Product List | Glossary On
Versions: 1 2 3 4 5 6 7 8 9 10 11 12 13 14 15 16 17 18 19 20 21 22 23 24 25 26 27
000
ASUS43 KMPX 200610
RWRMN
WEATHER ROUNDUP FOR MINNESOTA
NATIONAL WEATHER SERVICE TWIN CITIES/CHANHASSEN MN
100 AM CDT SUN JUN 20 2021


NOTE: "FAIR" INDICATES FEW OR NO CLOUDS BELOW 12,000 FEET WITH NO
SIGNIFICANT WEATHER AND/OR OBSTRUCTIONS TO VISIBILITY. N/A MEANS
CURRENT SKY AND/OR WEATHER CONDITIONS ARE NOT AVAILABLE.

MNZ060>063-068>070-200700-
   Twin Cities Metro

CITY           SKY/WX    TMP DP  RH WIND       PRES   REMARKS
TWIN CITIES    MOCLDY    69  51  52 NE7       29.76S
6HR MIN TEMP:  69; 6HR MAX TEMP:  79;

ST PAUL        MOCLDY    68  51  54 NE6       29.76S
CRYSTAL        MOCLDY    68  51  54 CALM      29.75S
BLAINE         MOCLDY    63  52  67 E3        29.75F
LAKEVILLE      MOCLDY    63  52  67 NE6       29.75S
EDEN PRAIRIE   MOCLDY    67  54  63 NE7       29.73F
6HR MIN TEMP:  65; 6HR MAX TEMP:  78;

SOUTH ST PAUL  MOCLDY    67  50  53 CALM      29.76S
LAKE ELMO      FAIR      59  52  77 CALM      29.78S
$$
MNZ001>005-007-008-013>017-022>024-027-028-200700-
   Northwest Minnesota

CITY           SKY/WX    TMP DP  RH WIND       PRES   REMARKS
BEMIDJI        PTCLDY    59  51  74 SW3       29.71F
HALLOCK        PTCLDY    55  50  82 CALM      29.65F
ROSEAU         PTCLDY    55  52  88 S5        29.66F
WARROAD        PTCLDY    57  54  88 S3        29.66F
THIEF RVR FALL PTCLDY    58  51  78 CALM      29.70F
CROOKSTON      MOCLDY    64  52  63 E7        29.67F
FOSSTON        MOCLDY    57  50  77 S3        29.70F
DETROIT LAKES  PTCLDY    68  54  60 S7        29.71F
MOORHEAD       MOCLDY    73  46  38 CALM      29.69F
PARK RAPIDS    MOCLDY    63  49  60 S5        29.73S
MAHNOMEN         N/A     61  52  73 S6        29.70F
$$
MNZ006-009>011-018-025>026-200700-
   North Central Minnesota

CITY           SKY/WX    TMP DP  RH WIND       PRES   REMARKS
BAUDETTE       CLEAR     57  52  83 CALM      29.68F
INTL FALLS     PTCLDY    54  48  80 SE3       29.68F
6HR MIN TEMP:  54; 6HR MAX TEMP:  66;

BIG FORK       CLEAR     52  48  87 CALM      29.77S
LONGVILLE      CLEAR     57  54  88 SE5       29.73F
GRAND RAPIDS   CLEAR     56  50  80 S6        29.75F
ORR            PTCLDY    54  46  76 CALM      29.70F
COOK           CLEAR     52  46  82 CALM      29.72F
WALKER         PTCLDY    60  51  73 NW5       29.72F
$$
MNZ012-019>021-037-200700-
   Northeast Minnesota

CITY           SKY/WX    TMP DP  RH WIND       PRES   REMARKS
DULUTH         CLEAR     51  48  89 E3        29.76S
6HR MIN TEMP:  50; 6HR MAX TEMP:  69;

ELY            CLOUDY    54  52  94 CALM      29.74F
HIBBING        CLEAR     46  44  93 CALM      29.74F
DULUTH HARBOR  CLEAR     55  52  88 NE7       29.76F
TWO HARBORS    CLEAR     46  41  81 CALM      29.75F
SILVER BAY       N/A     45  43  93 CALM      29.75F
GRAND MARAIS     N/A     47  43  86 CALM      29.75F
G MARAIS ARPRT CLEAR     45  41  87 CALM      29.76F
$$
MNZ029>031-032-039>041-046>048-054>057-064-200700-
   West Central Minnesota

CITY           SKY/WX    TMP DP  RH WIND       PRES   REMARKS
FERGUS FALLS   MOCLDY    70  52  52 SE7       29.65F
WHEATON        LGT RAIN  64  55  72 SE8       29.69F
MORRIS         MOCLDY    64  54  68 E7        29.70F
ALEXANDRIA     MOCLDY    67  52  58 SE5       29.75F
WADENA         MOCLDY    64  52  63 S7        29.72F
GLENWOOD       MOCLDY    63  57  82 CALM      29.74F
BENSON         MOCLDY    63  57  82 E7        29.70F
ORTONVILLE     MOCLDY    66  57  72 E6        29.69F
MADISON        MOCLDY    70  54  56 E5        29.71F
WILLMAR        FAIR      68  54  60 E5        29.74F
$$
MNZ033>034-036-042>043-049>051-058-059-200700-
   Central Minnesota

CITY           SKY/WX    TMP DP  RH WIND       PRES   REMARKS
ST CLOUD       MOCLDY    63  52  67 SE6       29.75F
6HR MIN TEMP:  61; 6HR MAX TEMP:  78;

SAUK CENTRE    FAIR      64  52  65 CALM      29.75F
AITKIN         CLEAR     50  46  87 CALM      29.75S
BRAINERD       PTCLDY    60  49  66 S6        29.75F
STAPLES        MOCLDY    63  52  67 S3        29.75R
LONG PRAIRIE   FAIR      63  52  67 CALM      29.76F
LITTLE FALLS   MOCLDY    61  45  55 CALM      29.77R
CAMP RIPLEY    MOCLDY    61  52  72 S5        29.77S
BUFFALO        LGT RAIN  65  54  67 MISG      29.75F
MAPLE LAKE     MOCLDY    62  56  81 CALM      29.78S
HUTCHINSON     PTCLDY    67  56  68 NE6       29.73F
$$
MNZ037-044-045-052-053-200700-
   East Central Minnesota

CITY           SKY/WX    TMP DP  RH WIND       PRES   REMARKS
PRINCETON      MOCLDY    55  52  88 CALM      29.77F
MORA           PTCLDY    54  50  87 CALM      29.78F
CAMBRIDGE      MOCLDY    59  48  67 CALM      29.77S
RUSH CITY      CLOUDY    56  50  79 CALM      29.76F
MOOSE LAKE     PTCLDY    50  46  87 CALM      29.74F
CLOQUET        CLEAR     50  48  93 CALM      29.75S
$$
MNZ071>073-080-081-089-090-097-098-200700-
   Southwest Minnesota

CITY           SKY/WX    TMP DP  RH WIND       PRES   REMARKS
MONTEVIDEO     MOCLDY    64  54  68 E5        29.71F
GRANITE FALLS  MOCLDY    67  55  64 E5        29.71F
CANBY          MOCLDY    63  52  67 CALM      29.73R
MARSHALL       MOCLDY    68  51  54 SE7       29.73R
REDWOOD FALLS  MOCLDY    67  51  56 E7        29.70F
OLIVIA         MOCLDY    68  48  49 E7        29.70F
PIPESTONE      MOCLDY    66  52  59 CALM      29.75R
WINDOM         MOCLDY    64  52  63 E5        29.73R
WORTHINGTON    MOCLDY    66  50  56 E8        29.73R
JACKSON        CLOUDY    64  50  59 E7        29.74R
TRACY          MOCLDY    63  51  65 S5        29.73R
SLAYTON        MOCLDY    65  40  40 E7        29.74R
$$
MNZ065>067-074>077-082>085-091>093-200700-
   South Central Minnesota

CITY           SKY/WX    TMP DP  RH WIND       PRES   REMARKS
MANKATO        MOCLDY    68  54  60 CALM      29.75R
NEW ULM        MOCLDY    68  50  52 E3        29.73S
ST JAMES       MOCLDY    63  54  72 E7        29.73R
FAIRMONT       MOCLDY    64  51  62 E5        29.75R
GLENCOE        MOCLDY    66  51  58 NE3       29.73F
FARIBAULT      MOCLDY    61  54  77 NE3       29.73F
OWATONNA       MOCLDY    63  52  67 SE5       29.74S
WASECA         MOCLDY    64  52  63 CALM      29.76R
ALBERT LEA     MOCLDY    66  52  59 SE5       29.75S
$$
MNZ078>079-086>088-094>096-200700-
   Southeast Minnesota

CITY           SKY/WX    TMP DP  RH WIND       PRES   REMARKS
ROCHESTER      PTCLDY    59  52  77 SE6       29.78F
6HR MIN TEMP:  59; 6HR MAX TEMP:  76;

RED WING       PTCLDY    63  52  67 SE3       29.75S
STANTON        MOCLDY    58  55  89 NE3       29.74F
DODGE CENTER   PTCLDY    57  48  72 E6        29.75F
WINONA         PTCLDY    61  61 100 CALM      29.75F
AUSTIN         MOCLDY    63  54  72 E6        29.75F
$$
ABBREVIATIONS USED IN REMARKS
   TC - TEMPERATURES IN CELSIUS
  WCI - WIND CHILL INDEX
   HX - HEAT INDEX
  VSB - VISIBILITY
$$



USA.gov is the U.S. government's official web portal to all federal, state and local government web resources and services.